| time (UTC) | temp C | wind direction | speed KPH | gust KPH | rain 1hr cm | rain 24hr cm | rain mn cm | humidity % | barometer mb |
| 20260906093043 | 21 | 71 | 0.0 | 0.0 | 0.00 | 0.43 | 0.00 | 84 | 1015.5 |
| 20260906092512 | 21 | 71 | 0.0 | 0.0 | 0.00 | 0.43 | 0.00 | 85 | 1015.4 |
| 20260906092008 | 21 | 77 | 0.0 | 0.0 | 0.00 | 0.43 | 0.00 | 86 | 1015.4 |
| 20260906091525 | 21 | 77 | 0.0 | 0.0 | 0.00 | 0.43 | 0.00 | 86 | 1015.4 |
| 20260906091016 | 21 | 77 | 0.0 | 0.0 | 0.00 | 0.43 | 0.00 | 86 | 1015.3 |
| 20260906090507 | 21 | 65 | 0.0 | 0.0 | 0.00 | 0.43 | 0.00 | 86 | 1015.3 |
| 20260906090018 | 21 | 77 | 0.0 | 0.0 | 0.00 | 0.43 | 0.00 | 86 | 1015.3 |
| 20260906085509 | 21 | 71 | 0.0 | 1.6 | 0.00 | 0.43 | 0.00 | 87 | 1015.2 |
| 20260906085007 | 21 | 117 | 0.0 | 1.6 | 0.00 | 0.43 | 0.00 | 87 | 1015.1 |
| 20260906084515 | 21 | 49 | 0.0 | 0.0 | 0.00 | 0.43 | 0.00 | 88 | 1015.0 |
| 20260906084008 | 21 | 50 | 0.0 | 0.0 | 0.00 | 0.43 | 0.00 | 88 | 1015.0 |
| 20260906083512 | 21 | 50 | 0.0 | 0.0 | 0.00 | 0.43 | 0.00 | 88 | 1015.0 |
| 20260906083027 | 21 | 32 | 0.0 | 0.0 | 0.00 | 0.43 | 0.00 | 88 | 1014.9 |
| 20260906082510 | 21 | 34 | 0.0 | 0.0 | 0.00 | 0.43 | 0.00 | 89 | 1014.9 |
| 20260906082012 | 21 | 29 | 0.0 | 0.0 | 0.00 | 0.43 | 0.00 | 89 | 1015.0 |
| 20260906081544 | 21 | 27 | 0.0 | 0.0 | 0.00 | 0.43 | 0.00 | 89 | 1015.0 |
| 20260906081006 | 21 | 17 | 0.0 | 0.0 | 0.00 | 0.43 | 0.00 | 89 | 1014.8 |
| 20260906080512 | 21 | 17 | 0.0 | 0.0 | 0.00 | 0.43 | 0.00 | 89 | 1014.9 |
| 20260906080032 | 21 | 17 | 0.0 | 0.0 | 0.00 | 0.43 | 0.00 | 89 | 1014.9 |
| 20260906075508 | 21 | 16 | 0.0 | 0.0 | 0.00 | 0.43 | 0.00 | 89 | 1014.9 |
| 20260906075008 | 21 | 16 | 0.0 | 0.0 | 0.00 | 0.43 | 0.00 | 89 | 1014.9 |
| 20260906074519 | 21 | 16 | 0.0 | 0.0 | 0.00 | 0.43 | 0.00 | 89 | 1014.8 |
| 20260906074007 | 21 | 16 | 0.0 | 0.0 | 0.00 | 0.43 | 0.00 | 89 | 1014.9 |
| 20260906073507 | 21 | 16 | 0.0 | 0.0 | 0.00 | 0.43 | 0.00 | 89 | 1014.9 |
| 20260906073043 | 21 | 16 | 0.0 | 0.0 | 0.00 | 0.43 | 0.00 | 89 | 1014.9 |
| 20260906072510 | 21 | 16 | 0.0 | 0.0 | 0.00 | 0.43 | 0.00 | 89 | 1014.9 |
| 20260906072015 | 21 | 15 | 0.0 | 0.0 | 0.00 | 0.43 | 0.00 | 89 | 1014.9 |
| 20260906071518 | 21 | 15 | 0.0 | 0.0 | 0.00 | 0.43 | 0.00 | 89 | 1014.9 |
| 20260906071012 | 21 | 15 | 0.0 | 0.0 | 0.00 | 0.43 | 0.00 | 89 | 1014.9 |
| 20260906070518 | 21 | 15 | 0.0 | 0.0 | 0.00 | 0.43 | 0.00 | 89 | 1014.9 |
| 20260906070016 | 21 | 15 | 0.0 | 0.0 | 0.00 | 0.43 | 0.00 | 89 | 1014.9 |
| 20260906065512 | 21 | 15 | 0.0 | 0.0 | 0.00 | 0.43 | 0.00 | 88 | 1014.9 |
| 20260906065013 | 21 | 15 | 0.0 | 0.0 | 0.00 | 0.43 | 0.00 | 88 | 1014.9 |
| 20260906064518 | 21 | 15 | 0.0 | 0.0 | 0.00 | 0.43 | 0.00 | 88 | 1015.0 |
| 20260906064010 | 21 | 15 | 0.0 | 0.0 | 0.00 | 0.43 | 0.00 | 88 | 1015.0 |
| 20260906063512 | 21 | 15 | 0.0 | 0.0 | 0.00 | 0.43 | 0.00 | 88 | 1015.0 |
| 20260906063024 | 21 | 15 | 0.0 | 0.0 | 0.00 | 0.43 | 0.00 | 88 | 1015.0 |
| 20260906062506 | 21 | 15 | 0.0 | 0.0 | 0.00 | 0.43 | 0.00 | 88 | 1015.0 |
| 20260906062013 | 21 | 15 | 0.0 | 0.0 | 0.00 | 0.43 | 0.00 | 88 | 1015.0 |
| 20260906061530 | 21 | 15 | 0.0 | 0.0 | 0.00 | 0.43 | 0.00 | 88 | 1015.0 |
| 20260906061014 | 21 | 15 | 0.0 | 0.0 | 0.00 | 0.43 | 0.00 | 88 | 1015.0 |
| 20260906060511 | 21 | 15 | 0.0 | 0.0 | 0.00 | 0.43 | 0.00 | 88 | 1014.9 |
| 20260906060028 | 21 | 15 | 0.0 | 0.0 | 0.00 | 0.43 | 0.00 | 87 | 1014.7 |
| 20260906055513 | 21 | 15 | 0.0 | 0.0 | 0.00 | 0.43 | 0.00 | 87 | 1014.7 |
| 20260906055018 | 21 | 15 | 0.0 | 0.0 | 0.00 | 0.43 | 0.00 | 87 | 1014.7 |
| 20260906054526 | 21 | 15 | 0.0 | 0.0 | 0.00 | 0.43 | 0.00 | 87 | 1014.8 |
| 20260906054014 | 21 | 15 | 0.0 | 0.0 | 0.00 | 0.43 | 0.00 | 86 | 1014.7 |
| 20260906053509 | 22 | 15 | 0.0 | 0.0 | 0.00 | 0.43 | 0.00 | 87 | 1014.7 |
| 20260906053021 | 21 | 15 | 0.0 | 0.0 | 0.00 | 0.43 | 0.00 | 87 | 1014.8 |
| 20260906052511 | 21 | 15 | 0.0 | 0.0 | 0.00 | 0.43 | 0.00 | 86 | 1014.9 |
| 20260906052013 | 22 | 15 | 0.0 | 0.0 | 0.00 | 0.43 | 0.00 | 86 | 1014.8 |
| 20260906051526 | 22 | 15 | 0.0 | 0.0 | 0.00 | 0.43 | 0.00 | 86 | 1014.7 |
| 20260906051015 | 22 | 15 | 0.0 | 0.0 | 0.00 | 0.43 | 0.00 | 86 | 1014.8 |
| 20260906050514 | 22 | 15 | 0.0 | 0.0 | 0.00 | 0.43 | 0.00 | 86 | 1014.7 |
| 20260906050033 | 22 | 15 | 0.0 | 0.0 | 0.00 | 0.43 | 0.00 | 86 | 1014.7 |
| 20260906045508 | 22 | 15 | 0.0 | 0.0 | 0.00 | 0.43 | 0.00 | 85 | 1014.7 |
| 20260906045016 | 22 | 15 | 0.0 | 0.0 | 0.00 | 0.43 | 0.00 | 85 | 1014.6 |
| 20260906044531 | 22 | 15 | 0.0 | 0.0 | 0.00 | 0.43 | 0.00 | 85 | 1014.7 |
| 20260906044016 | 22 | 15 | 0.0 | 0.0 | 0.00 | 0.43 | 0.00 | 85 | 1014.6 |
| 20260906043510 | 22 | 15 | 0.0 | 0.0 | 0.00 | 0.43 | 0.00 | 85 | 1014.6 |
| 20260906043039 | 22 | 15 | 0.0 | 0.0 | 0.00 | 0.43 | 0.00 | 85 | 1014.5 |
| 20260906042508 | 22 | 15 | 0.0 | 0.0 | 0.00 | 0.43 | 0.00 | 85 | 1014.4 |
| 20260906042010 | 22 | 15 | 0.0 | 0.0 | 0.00 | 0.43 | 0.00 | 85 | 1014.4 |
| 20260906041524 | 22 | 15 | 0.0 | 0.0 | 0.00 | 0.43 | 0.00 | 85 | 1014.4 |
| 20260906041013 | 22 | 16 | 0.0 | 0.0 | 0.00 | 0.43 | 0.00 | 85 | 1014.4 |
| 20260906040514 | 22 | 16 | 0.0 | 4.8 | 0.00 | 0.43 | 0.00 | 84 | 1014.4 |
| 20260906040027 | 22 | 16 | 0.0 | 9.7 | 0.00 | 0.43 | 0.00 | 84 | 1014.3 |
| 20260906035516 | 22 | 16 | 0.0 | 9.7 | 0.00 | 0.43 | 0.43 | 84 | 1014.4 |
| 20260906035016 | 22 | 348 | 0.0 | 9.7 | 0.00 | 0.43 | 0.43 | 83 | 1014.5 |
| 20260906034526 | 22 | 17 | 0.0 | 12.9 | 0.00 | 0.43 | 0.43 | 83 | 1014.5 |
| 20260906034013 | 22 | 352 | 0.0 | 16.1 | 0.00 | 0.43 | 0.43 | 82 | 1014.4 |
| 20260906033514 | 22 | 301 | 0.0 | 16.1 | 0.00 | 0.43 | 0.43 | 82 | 1014.4 |
| 20260906033030 | 23 | 336 | 1.6 | 12.9 | 0.00 | 0.43 | 0.43 | 82 | 1014.4 |
| 20260906032511 | 23 | 33 | 0.0 | 9.7 | 0.00 | 0.43 | 0.43 | 82 | 1014.3 |
| 20260906032016 | 23 | 36 | 0.0 | 16.1 | 0.00 | 0.43 | 0.43 | 82 | 1014.3 |
| 20260906031520 | 23 | 338 | 1.6 | 16.1 | 0.00 | 0.43 | 0.43 | 82 | 1014.3 |
| 20260906031014 | 23 | 19 | 0.0 | 16.1 | 0.00 | 0.43 | 0.43 | 82 | 1014.3 |
| 20260906030512 | 23 | 78 | 1.6 | 16.1 | 0.00 | 0.43 | 0.43 | 82 | 1014.3 |
| 20260906030025 | 23 | 330 | 1.6 | 8.0 | 0.00 | 0.43 | 0.43 | 82 | 1014.3 |
| 20260906025514 | 23 | 334 | 0.0 | 6.4 | 0.00 | 0.43 | 0.43 | 81 | 1014.2 |
| 20260906025011 | 23 | 331 | 1.6 | 12.9 | 0.00 | 0.43 | 0.43 | 81 | 1014.2 |
| 20260906024528 | 23 | 333 | 0.0 | 12.9 | 0.00 | 0.43 | 0.43 | 81 | 1014.2 |
| 20260906024006 | 23 | 337 | 0.0 | 6.4 | 0.00 | 0.43 | 0.43 | 81 | 1014.2 |
| 20260906023510 | 24 | 24 | 0.0 | 6.4 | 0.00 | 0.43 | 0.43 | 80 | 1014.0 |
| 20260906023012 | 24 | 84 | 0.0 | 1.6 | 0.00 | 0.43 | 0.43 | 80 | 1014.0 |
| 20260906022504 | 24 | 360 | 0.0 | 1.6 | 0.00 | 0.43 | 0.43 | 80 | 1014.0 |
| 20260906022009 | 24 | 350 | 0.0 | 1.6 | 0.00 | 0.43 | 0.43 | 80 | 1013.9 |
| 20260906021518 | 25 | 352 | 0.0 | 1.6 | 0.00 | 0.43 | 0.43 | 79 | 1013.8 |
| 20260906021010 | 25 | 350 | 0.0 | 12.9 | 0.00 | 0.43 | 0.43 | 78 | 1013.6 |
| 20260906020504 | 25 | 350 | 1.6 | 12.9 | 0.00 | 0.43 | 0.43 | 78 | 1013.5 |
| 20260906020021 | 25 | 360 | 0.0 | 12.9 | 0.00 | 0.43 | 0.43 | 78 | 1013.4 |
| 20260906015513 | 25 | 333 | 0.0 | 8.0 | 0.00 | 0.43 | 0.43 | 79 | 1013.4 |
| 20260906015014 | 25 | 342 | 0.0 | 9.7 | 0.00 | 0.43 | 0.43 | 78 | 1013.3 |
| 20260906014525 | 25 | 340 | 0.0 | 9.7 | 0.00 | 0.43 | 0.43 | 78 | 1013.3 |
| 20260906014009 | 25 | 352 | 0.0 | 0.0 | 0.00 | 0.43 | 0.43 | 78 | 1013.3 |
| 20260906013514 | 25 | 5 | 0.0 | 0.0 | 0.00 | 0.43 | 0.43 | 79 | 1013.3 |
| 20260906013013 | 25 | 5 | 0.0 | 0.0 | 0.00 | 0.43 | 0.43 | 80 | 1013.3 |
| 20260906012510 | 25 | 5 | 0.0 | 0.0 | 0.00 | 0.43 | 0.43 | 79 | 1013.3 |
| 20260906012007 | 26 | 5 | 0.0 | 0.0 | 0.00 | 0.43 | 0.43 | 79 | 1013.2 |
| 20260906011514 | 26 | 5 | 0.0 | 1.6 | 0.00 | 0.43 | 0.43 | 78 | 1013.1 |
| 20260906011010 | 26 | 5 | 0.0 | 1.6 | 0.00 | 0.43 | 0.43 | 78 | 1013.1 |
| 20260906010509 | 26 | 9 | 0.0 | 1.6 | 0.00 | 0.43 | 0.43 | 79 | 1012.9 |
| 20260906010023 | 26 | 9 | 0.0 | 1.6 | 0.00 | 0.43 | 0.43 | 77 | 1012.9 |
| 20260906005510 | 26 | 10 | 0.0 | 1.6 | 0.00 | 0.43 | 0.43 | 77 | 1012.7 |
| 20260906005008 | 27 | 10 | 0.0 | 12.9 | 0.00 | 0.43 | 0.43 | 76 | 1012.7 |
| 20260906004527 | 27 | 10 | 0.0 | 12.9 | 0.00 | 0.43 | 0.43 | 75 | 1012.6 |
| 20260906004014 | 27 | 335 | 1.6 | 14.5 | 0.00 | 0.43 | 0.43 | 74 | 1012.7 |
| 20260906003506 | 27 | 321 | 4.8 | 16.1 | 0.00 | 0.43 | 0.43 | 74 | 1012.8 |
| 20260906003024 | 27 | 325 | 1.6 | 17.7 | 0.00 | 0.43 | 0.43 | 74 | 1012.7 |
| 20260906002515 | 27 | 350 | 3.2 | 17.7 | 0.00 | 0.43 | 0.43 | 73 | 1012.6 |
| 20260906002016 | 27 | 301 | 1.6 | 16.1 | 0.00 | 0.43 | 0.43 | 73 | 1012.6 |
| 20260906001520 | 27 | 22 | 4.8 | 16.1 | 0.00 | 0.43 | 0.43 | 73 | 1012.5 |
| 20260906001009 | 28 | 350 | 0.0 | 12.9 | 0.00 | 0.43 | 0.43 | 74 | 1012.4 |
| 20260906000507 | 28 | 348 | 0.0 | 16.1 | 0.00 | 0.43 | 0.43 | 73 | 1012.4 |
| 20260906000017 | 28 | 5 | 3.2 | 22.5 | 0.00 | 0.43 | 0.43 | 72 | 1012.4 |
| 20260905235508 | 29 | 318 | 4.8 | 22.5 | 0.00 | 0.43 | 0.43 | 72 | 1012.3 |
| 20260905235011 | 29 | 347 | 3.2 | 22.5 | 0.00 | 0.43 | 0.43 | 73 | 1012.3 |
| 20260905234526 | 30 | 9 | 0.0 | 17.7 | 0.00 | 0.43 | 0.43 | 72 | 1012.2 |
| 20260905234007 | 30 | 10 | 6.4 | 19.3 | 0.00 | 0.43 | 0.43 | 72 | 1012.0 |
| 20260905233514 | 30 | 334 | 4.8 | 19.3 | 0.00 | 0.43 | 0.43 | 73 | 1012.1 |
| 20260905233030 | 30 | 321 | 0.0 | 8.0 | 0.00 | 0.43 | 0.43 | 73 | 1011.9 |
| 20260905232509 | 30 | 321 | 1.6 | 8.0 | 0.00 | 0.43 | 0.43 | 72 | 1011.9 |
| 20260905232013 | 30 | 321 | 0.0 | 4.8 | 0.00 | 0.43 | 0.43 | 72 | 1011.9 |
| 20260905231529 | 30 | 321 | 0.0 | 6.4 | 0.00 | 0.43 | 0.43 | 73 | 1011.9 |
| 20260905231017 | 30 | 321 | 0.0 | 6.4 | 0.00 | 0.43 | 0.43 | 71 | 1011.9 |
| 20260905230510 | 30 | 320 | 0.0 | 9.7 | 0.00 | 0.43 | 0.43 | 72 | 1011.9 |
| 20260905230018 | 31 | 320 | 0.0 | 9.7 | 0.00 | 0.43 | 0.43 | 71 | 1011.9 |
| 20260905225510 | 31 | 319 | 3.2 | 9.7 | 0.00 | 0.43 | 0.43 | 71 | 1011.8 |
| 20260905225006 | 31 | 317 | 0.0 | 12.9 | 0.00 | 0.43 | 0.43 | 70 | 1011.8 |
| 20260905224531 | 30 | 315 | 4.8 | 12.9 | 0.00 | 0.43 | 0.43 | 71 | 1011.8 |
| 20260905224013 | 30 | 257 | 0.0 | 0.0 | 0.00 | 0.43 | 0.43 | 73 | 1011.8 |
| 20260905223517 | 30 | 253 | 0.0 | 0.0 | 0.00 | 0.43 | 0.43 | 75 | 1011.7 |
| 20260905223030 | 30 | 253 | 0.0 | 0.0 | 0.00 | 0.43 | 0.43 | 77 | 1011.8 |
| 20260905222518 | 29 | 253 | 0.0 | 0.0 | 0.00 | 0.43 | 0.43 | 78 | 1011.8 |
| 20260905222016 | 30 | 253 | 0.0 | 0.0 | 0.00 | 0.43 | 0.43 | 78 | 1011.8 |
| 20260905221528 | 29 | 253 | 0.0 | 0.0 | 0.00 | 0.43 | 0.43 | 80 | 1012.0 |
| 20260905221013 | 30 | 253 | 0.0 | 1.6 | 0.00 | 0.43 | 0.43 | 79 | 1011.8 |
| 20260905220518 | 30 | 253 | 0.0 | 1.6 | 0.00 | 0.43 | 0.43 | 80 | 1011.7 |
| 20260905220031 | 30 | 253 | 0.0 | 1.6 | 0.00 | 0.43 | 0.43 | 77 | 1011.7 |
| 20260905215512 | 30 | 253 | 0.0 | 1.6 | 0.00 | 0.43 | 0.43 | 78 | 1011.6 |
| 20260905215008 | 30 | 253 | 0.0 | 1.6 | 0.00 | 0.43 | 0.43 | 77 | 1011.7 |
| 20260905214520 | 30 | 253 | 0.0 | 6.4 | 0.00 | 0.43 | 0.43 | 75 | 1011.7 |
| 20260905214010 | 31 | 253 | 0.0 | 6.4 | 0.00 | 0.43 | 0.43 | 71 | 1011.8 |
| 20260905213512 | 30 | 250 | 0.0 | 0.0 | 0.00 | 0.43 | 0.43 | 75 | 1011.8 |
| 20260905213029 | 30 | 250 | 0.0 | 0.0 | 0.00 | 0.43 | 0.43 | 78 | 1011.9 |
| 20260905212513 | 30 | 250 | 0.0 | 0.0 | 0.00 | 0.43 | 0.43 | 80 | 1011.9 |
| 20260905212009 | 30 | 250 | 0.0 | 0.0 | 0.00 | 0.43 | 0.43 | 78 | 1011.8 |
| 20260905211526 | 30 | 250 | 0.0 | 0.0 | 0.00 | 0.43 | 0.43 | 79 | 1011.8 |
| 20260905211019 | 29 | 250 | 0.0 | 0.0 | 0.00 | 0.43 | 0.43 | 81 | 1011.9 |
| 20260905210517 | 29 | 250 | 0.0 | 0.0 | 0.00 | 0.43 | 0.43 | 79 | 1011.9 |
| 20260905210023 | 28 | 250 | 0.0 | 0.0 | 0.00 | 0.43 | 0.43 | 82 | 1011.9 |
| 20260905205516 | 28 | 250 | 0.0 | 0.0 | 0.00 | 0.43 | 0.43 | 84 | 1012.0 |
| 20260905205004 | 29 | 250 | 0.0 | 0.0 | 0.03 | 0.43 | 0.43 | 82 | 1012.1 |
| 20260905204518 | 28 | 250 | 0.0 | 0.0 | 0.10 | 0.43 | 0.43 | 82 | 1012.1 |
| 20260905204004 | 28 | 250 | 0.0 | 0.0 | 0.25 | 0.43 | 0.43 | 83 | 1012.1 |
| 20260905203504 | 28 | 250 | 0.0 | 0.0 | 0.43 | 0.43 | 0.43 | 87 | 1012.1 |
| 20260905203017 | 27 | 250 | 0.0 | 0.0 | 0.43 | 0.43 | 0.43 | 85 | 1012.2 |
| 20260905202503 | 27 | 250 | 0.0 | 0.0 | 0.43 | 0.43 | 0.43 | 84 | 1012.2 |
| 20260905202003 | 27 | 250 | 0.0 | 0.0 | 0.43 | 0.43 | 0.43 | 85 | 1012.2 |
| 20260905201507 | 26 | 250 | 0.0 | 0.0 | 0.43 | 0.43 | 0.43 | 88 | 1012.3 |
| 20260905201004 | 25 | 250 | 0.0 | 0.0 | 0.43 | 0.43 | 0.43 | 86 | 1012.3 |
| 20260905200503 | 23 | 250 | 0.0 | 0.0 | 0.43 | 0.43 | 0.43 | 86 | 1012.3 |
| 20260905200011 | 23 | 250 | 0.0 | 0.0 | 0.43 | 0.43 | 0.43 | 86 | 1012.5 |
| 20260905195507 | 23 | 250 | 0.0 | 12.9 | 0.43 | 0.43 | 0.43 | 84 | 1012.5 |
| 20260905195011 | 24 | 250 | 0.0 | 22.5 | 0.41 | 0.41 | 0.41 | 75 | 1012.8 |
| 20260905194506 | 26 | 223 | 4.8 | 24.1 | 0.33 | 0.33 | 0.33 | 69 | 1013.0 |
| 20260905194003 | 28 | 315 | 11.3 | 24.1 | 0.18 | 0.18 | 0.18 | 69 | 1013.3 |
| 20260905193508 | 30 | 96 | 0.0 | 0.0 | 0.00 | 0.00 | 0.00 | 75 | 1012.7 |
| 20260905193005 | 31 | 96 | 0.0 | 0.0 | 0.00 | 0.00 | 0.00 | 69 | 1012.7 |
| 20260905192505 | 31 | 96 | 0.0 | 1.6 | 0.00 | 0.00 | 0.00 | 69 | 1012.4 |
| 20260905192008 | 31 | 96 | 0.0 | 9.7 | 0.00 | 0.00 | 0.00 | 66 | 1012.5 |
| 20260905191503 | 32 | 96 | 0.0 | 9.7 | 0.00 | 0.00 | 0.00 | 63 | 1012.7 |
| 20260905191004 | 32 | 86 | 0.0 | 0.0 | 0.00 | 0.00 | 0.00 | 62 | 1012.8 |
| 20260905190504 | 32 | 86 | 0.0 | 0.0 | 0.00 | 0.00 | 0.00 | 60 | 1012.8 |
| 20260905190026 | 32 | 86 | 0.0 | 0.0 | 0.00 | 0.00 | 0.00 | 66 | 1012.7 |
| 20260905185504 | 32 | 111 | 0.0 | 0.0 | 0.00 | 0.00 | 0.00 | 63 | 1012.8 |
| 20260905185006 | 31 | 111 | 0.0 | 0.0 | 0.00 | 0.00 | 0.00 | 67 | 1012.9 |
| 20260905184515 | 32 | 111 | 0.0 | 0.0 | 0.00 | 0.00 | 0.00 | 61 | 1013.1 |
| 20260905184008 | 32 | 111 | 0.0 | 0.0 | 0.00 | 0.00 | 0.00 | 61 | 1013.2 |
| 20260905183503 | 32 | 111 | 0.0 | 0.0 | 0.00 | 0.00 | 0.00 | 64 | 1013.3 |
| 20260905183016 | 32 | 111 | 0.0 | 9.7 | 0.00 | 0.00 | 0.00 | 62 | 1013.3 |
| 20260905182508 | 32 | 111 | 0.0 | 9.7 | 0.00 | 0.00 | 0.00 | 61 | 1013.4 |
| 20260905182010 | 32 | 107 | 0.0 | 11.3 | 0.00 | 0.00 | 0.00 | 66 | 1013.4 |
| 20260905181512 | 32 | 107 | 0.0 | 11.3 | 0.00 | 0.00 | 0.00 | 65 | 1013.5 |
| 20260905181007 | 32 | 104 | 0.0 | 4.8 | 0.00 | 0.00 | 0.00 | 67 | 1013.5 |
| 20260905180506 | 32 | 104 | 0.0 | 4.8 | 0.00 | 0.00 | 0.00 | 69 | 1013.6 |
| 20260905180008 | 32 | 104 | 0.0 | 4.8 | 0.00 | 0.00 | 0.00 | 67 | 1013.7 |
| 20260905175504 | 31 | 104 | 0.0 | 4.8 | 0.00 | 0.00 | 0.00 | 65 | 1013.8 |
| 20260905175006 | 32 | 104 | 0.0 | 4.8 | 0.00 | 0.00 | 0.00 | 63 | 1013.8 |
| 20260905174512 | 31 | 104 | 0.0 | 1.6 | 0.00 | 0.00 | 0.00 | 66 | 1013.9 |
| 20260905174005 | 31 | 104 | 0.0 | 0.0 | 0.00 | 0.00 | 0.00 | 66 | 1013.9 |
| 20260905173507 | 31 | 104 | 0.0 | 1.6 | 0.00 | 0.00 | 0.00 | 66 | 1013.8 |
| 20260905173015 | 31 | 104 | 0.0 | 1.6 | 0.00 | 0.00 | 0.00 | 66 | 1013.8 |
| 20260905172504 | 31 | 104 | 0.0 | 11.3 | 0.00 | 0.00 | 0.00 | 65 | 1013.9 |
| 20260905172004 | 30 | 104 | 0.0 | 11.3 | 0.00 | 0.00 | 0.00 | 69 | 1013.9 |
| 20260905171518 | 31 | 96 | 0.0 | 0.0 | 0.00 | 0.00 | 0.00 | 66 | 1013.9 |
| 20260905171012 | 30 | 96 | 0.0 | 1.6 | 0.00 | 0.00 | 0.00 | 66 | 1014.0 |
| 20260905170503 | 30 | 96 | 0.0 | 11.3 | 0.00 | 0.00 | 0.00 | 66 | 1014.1 |
| 20260905170014 | 30 | 96 | 4.8 | 11.3 | 0.00 | 0.00 | 0.00 | 70 | 1014.2 |
| 20260905165503 | 30 | 98 | 0.0 | 1.6 | 0.00 | 0.00 | 0.00 | 66 | 1014.3 |
| 20260905165004 | 30 | 98 | 0.0 | 6.4 | 0.00 | 0.00 | 0.00 | 67 | 1014.3 |
| 20260905164510 | 30 | 98 | 1.6 | 6.4 | 0.00 | 0.00 | 0.00 | 70 | 1014.3 |
| 20260905164004 | 30 | 97 | 0.0 | 0.0 | 0.00 | 0.00 | 0.00 | 73 | 1014.2 |
| 20260905163507 | 28 | 97 | 0.0 | 0.0 | 0.00 | 0.00 | 0.00 | 70 | 1014.2 |
| 20260905163010 | 28 | 97 | 0.0 | 1.6 | 0.00 | 0.00 | 0.00 | 72 | 1014.2 |
| 20260905162509 | 28 | 97 | 0.0 | 6.4 | 0.00 | 0.00 | 0.00 | 70 | 1014.2 |
| 20260905162008 | 28 | 97 | 0.0 | 6.4 | 0.00 | 0.00 | 0.00 | 69 | 1014.3 |
| 20260905161507 | 28 | 97 | 0.0 | 11.3 | 0.00 | 0.00 | 0.00 | 69 | 1014.4 |
| 20260905161004 | 28 | 97 | 1.6 | 11.3 | 0.00 | 0.00 | 0.00 | 69 | 1014.2 |
| 20260905160510 | 28 | 98 | 0.0 | 11.3 | 0.00 | 0.00 | 0.00 | 70 | 1014.2 |
| 20260905160027 | 29 | 97 | 0.0 | 6.4 | 0.00 | 0.00 | 0.00 | 66 | 1014.2 |
| 20260905155506 | 28 | 97 | 0.0 | 14.5 | 0.00 | 0.00 | 0.00 | 69 | 1014.3 |
| 20260905155007 | 28 | 97 | 1.6 | 14.5 | 0.00 | 0.00 | 0.00 | 67 | 1014.5 |
| 20260905154504 | 28 | 96 | 3.2 | 14.5 | 0.00 | 0.00 | 0.00 | 70 | 1014.6 |
| 20260905154004 | 28 | 101 | 4.8 | 14.5 | 0.00 | 0.00 | 0.00 | 67 | 1014.6 |
| 20260905153505 | 28 | 101 | 3.2 | 14.5 | 0.00 | 0.00 | 0.00 | 69 | 1014.5 |
| 20260905153013 | 28 | 99 | 3.2 | 14.5 | 0.00 | 0.00 | 0.00 | 69 | 1014.4 |
| 20260905152506 | 28 | 99 | 6.4 | 14.5 | 0.00 | 0.00 | 0.00 | 69 | 1014.3 |
| 20260905152004 | 28 | 104 | 0.0 | 14.5 | 0.00 | 0.00 | 0.00 | 72 | 1014.3 |
| 20260905151516 | 28 | 104 | 3.2 | 14.5 | 0.00 | 0.00 | 0.00 | 70 | 1014.2 |
| 20260905151010 | 28 | 100 | 1.6 | 12.9 | 0.00 | 0.00 | 0.00 | 70 | 1014.3 |
| 20260905150510 | 28 | 100 | 0.0 | 12.9 | 0.00 | 0.00 | 0.00 | 71 | 1014.4 |
| 20260905150018 | 28 | 102 | 3.2 | 12.9 | 0.00 | 0.00 | 0.00 | 71 | 1014.7 |
| 20260905145509 | 28 | 101 | 0.0 | 6.4 | 0.00 | 0.00 | 0.00 | 72 | 1014.5 |
| 20260905145011 | 27 | 101 | 0.0 | 16.1 | 0.00 | 0.00 | 0.00 | 72 | 1014.5 |
| 20260905144508 | 27 | 101 | 4.8 | 16.1 | 0.00 | 0.00 | 0.00 | 71 | 1014.5 |
| 20260905144008 | 27 | 105 | 0.0 | 12.9 | 0.00 | 0.00 | 0.00 | 73 | 1014.5 |
| 20260905143504 | 27 | 105 | 0.0 | 11.3 | 0.00 | 0.00 | 0.00 | 73 | 1014.5 |
| 20260905143019 | 27 | 104 | 3.2 | 14.5 | 0.00 | 0.00 | 0.00 | 75 | 1014.5 |
| 20260905142506 | 27 | 104 | 0.0 | 14.5 | 0.00 | 0.00 | 0.00 | 75 | 1014.4 |
| 20260905142006 | 27 | 99 | 0.0 | 12.9 | 0.00 | 0.00 | 0.00 | 75 | 1014.3 |
| 20260905141520 | 27 | 99 | 0.0 | 14.5 | 0.00 | 0.00 | 0.00 | 76 | 1014.3 |
| 20260905141005 | 27 | 98 | 4.8 | 14.5 | 0.00 | 0.00 | 0.00 | 77 | 1014.5 |
| 20260905140508 | 27 | 116 | 4.8 | 12.9 | 0.00 | 0.00 | 0.00 | 77 | 1014.5 |
| 20260905140024 | 26 | 126 | 3.2 | 11.3 | 0.00 | 0.00 | 0.00 | 80 | 1014.5 |
| 20260905135513 | 26 | 126 | 1.6 | 11.3 | 0.00 | 0.00 | 0.00 | 80 | 1014.5 |
| 20260905135006 | 26 | 128 | 0.0 | 12.9 | 0.00 | 0.00 | 0.00 | 83 | 1014.5 |
| 20260905134524 | 25 | 128 | 4.8 | 12.9 | 0.00 | 0.00 | 0.00 | 83 | 1014.5 |
| 20260905134012 | 25 | 129 | 1.6 | 17.7 | 0.00 | 0.00 | 0.00 | 84 | 1014.5 |
| 20260905133505 | 24 | 129 | 6.4 | 17.7 | 0.00 | 0.00 | 0.00 | 85 | 1014.5 |
| 20260905133025 | 24 | 220 | 0.0 | 0.0 | 0.00 | 0.00 | 0.00 | 87 | 1014.4 |
| 20260905132504 | 25 | 220 | 0.0 | 0.0 | 0.00 | 0.00 | 0.00 | 85 | 1014.2 |
| 20260905132005 | 25 | 220 | 0.0 | 0.0 | 0.00 | 0.00 | 0.00 | 85 | 1014.2 |
| 20260905131527 | 25 | 220 | 0.0 | 0.0 | 0.00 | 0.00 | 0.00 | 87 | 1014.1 |
| 20260905131009 | 24 | 220 | 0.0 | 0.0 | 0.00 | 0.00 | 0.00 | 88 | 1014.1 |
| 20260905130508 | 23 | 220 | 0.0 | 0.0 | 0.00 | 0.00 | 0.00 | 89 | 1014.1 |
| 20260905130032 | 23 | 220 | 0.0 | 0.0 | 0.00 | 0.00 | 0.00 | 90 | 1014.1 |
| 20260905125508 | 23 | 220 | 0.0 | 0.0 | 0.00 | 0.00 | 0.00 | 90 | 1014.0 |
| 20260905125010 | 23 | 220 | 0.0 | 0.0 | 0.00 | 0.00 | 0.00 | 90 | 1014.0 |
| 20260905124527 | 23 | 220 | 0.0 | 0.0 | 0.00 | 0.00 | 0.00 | 90 | 1014.0 |
| 20260905124005 | 23 | 220 | 0.0 | 0.0 | 0.00 | 0.00 | 0.00 | 90 | 1013.9 |
| 20260905123510 | 23 | 220 | 0.0 | 0.0 | 0.00 | 0.00 | 0.00 | 90 | 1013.9 |
| 20260905123027 | 23 | 220 | 0.0 | 0.0 | 0.00 | 0.00 | 0.00 | 90 | 1013.9 |
| 20260905122518 | 23 | 220 | 0.0 | 0.0 | 0.00 | 0.00 | 0.00 | 90 | 1013.8 |
| 20260905122010 | 22 | 220 | 0.0 | 0.0 | 0.00 | 0.00 | 0.00 | 90 | 1013.8 |
| 20260905121513 | 22 | 220 | 0.0 | 0.0 | 0.00 | 0.00 | 0.00 | 90 | 1013.8 |
| 20260905121005 | 22 | 220 | 0.0 | 0.0 | 0.00 | 0.00 | 0.00 | 90 | 1013.8 |
| 20260905120503 | 22 | 220 | 0.0 | 0.0 | 0.00 | 0.00 | 0.00 | 90 | 1013.7 |
| 20260905120016 | 22 | 220 | 0.0 | 0.0 | 0.00 | 0.00 | 0.00 | 90 | 1013.7 |
| 20260905115508 | 22 | 220 | 0.0 | 0.0 | 0.00 | 0.00 | 0.00 | 90 | 1013.8 |
| 20260905115004 | 22 | 220 | 0.0 | 0.0 | 0.00 | 0.00 | 0.00 | 90 | 1013.8 |
| 20260905114516 | 22 | 220 | 0.0 | 0.0 | 0.00 | 0.00 | 0.00 | 90 | 1013.8 |
| 20260905114013 | 22 | 220 | 0.0 | 0.0 | 0.00 | 0.00 | 0.00 | 90 | 1013.6 |
| 20260905113504 | 22 | 220 | 0.0 | 0.0 | 0.00 | 0.00 | 0.00 | 90 | 1013.6 |
| 20260905113008 | 22 | 220 | 0.0 | 0.0 | 0.00 | 0.00 | 0.00 | 90 | 1013.6 |
| 20260905112505 | 22 | 220 | 0.0 | 0.0 | 0.00 | 0.00 | 0.00 | 90 | 1013.6 |
| 20260905112003 | 22 | 220 | 0.0 | 0.0 | 0.00 | 0.00 | 0.00 | 90 | 1013.6 |
| 20260905111508 | 22 | 220 | 0.0 | 0.0 | 0.00 | 0.00 | 0.00 | 90 | 1013.7 |
| 20260905111005 | 22 | 220 | 0.0 | 0.0 | 0.00 | 0.00 | 0.00 | 90 | 1013.6 |
| 20260905110509 | 22 | 220 | 0.0 | 0.0 | 0.00 | 0.00 | 0.00 | 90 | 1013.6 |
| 20260905110005 | 22 | 220 | 0.0 | 0.0 | 0.00 | 0.00 | 0.00 | 90 | 1013.6 |
| 20260905105506 | 22 | 220 | 0.0 | 0.0 | 0.00 | 0.00 | 0.00 | 90 | 1013.6 |
| 20260905105009 | 22 | 220 | 0.0 | 0.0 | 0.00 | 0.00 | 0.00 | 90 | 1013.6 |
| 20260905104518 | 22 | 220 | 0.0 | 0.0 | 0.00 | 0.00 | 0.00 | 90 | 1013.5 |
| 20260905104006 | 22 | 220 | 0.0 | 0.0 | 0.00 | 0.00 | 0.00 | 90 | 1013.5 |
| 20260905103509 | 22 | 220 | 0.0 | 0.0 | 0.00 | 0.00 | 0.00 | 90 | 1013.6 |
| 20260905103026 | 22 | 220 | 0.0 | 0.0 | 0.00 | 0.00 | 0.00 | 90 | 1013.6 |
| 20260905102503 | 22 | 220 | 0.0 | 0.0 | 0.00 | 0.00 | 0.00 | 90 | 1013.6 |
| 20260905102003 | 22 | 220 | 0.0 | 0.0 | 0.00 | 0.00 | 0.00 | 90 | 1013.6 |
| 20260905101509 | 22 | 220 | 0.0 | 0.0 | 0.00 | 0.00 | 0.00 | 90 | 1013.5 |
| 20260905101004 | 22 | 220 | 0.0 | 0.0 | 0.00 | 0.00 | 0.00 | 89 | 1013.5 |
| 20260905100506 | 22 | 220 | 0.0 | 0.0 | 0.00 | 0.00 | 0.00 | 89 | 1013.5 |
| 20260905100019 | 22 | 220 | 0.0 | 0.0 | 0.00 | 0.00 | 0.00 | 89 | 1013.5 |
| 20260905095506 | 22 | 220 | 0.0 | 0.0 | 0.00 | 0.00 | 0.00 | 89 | 1013.5 |
| 20260905095006 | 22 | 220 | 0.0 | 0.0 | 0.00 | 0.00 | 0.00 | 89 | 1013.5 |
| 20260905094515 | 22 | 220 | 0.0 | 0.0 | 0.00 | 0.00 | 0.00 | 89 | 1013.4 |
| 20260905094009 | 22 | 220 | 0.0 | 0.0 | 0.00 | 0.00 | 0.00 | 89 | 1013.5 |
| 20260905093509 | 23 | 220 | 0.0 | 0.0 | 0.00 | 0.00 | 0.00 | 89 | 1013.5 |